Regional Weather Roundup
Issued by NWS

Home | Current Version | Previous Version | Text Only | Print | Product List | Glossary On
Versions: 1 2 3 4 5 6 7 8 9 10 11 12 13 14 15 16 17 18 19 20 21 22 23 24 25 26 27
000
ASPQ40 PGUM 192012
RWRPQ
WEATHER ROUNDUP FOR THE MARIANAS AND MICRONESIA
NATIONAL WEATHER SERVICE TIYAN GU
600 AM GSST SUN APR 20 2014

GUZ001>004-192100-
MARIANA ISLANDS-

CITY           SKY/WX    TMP DP  RH WIND       PRES   REMARKS
GUAM AIRPORT   PTCLDY    81  77  89 SE5       29.82R
ANDERSEN AFB   MOCLDY    79  77  94 SE12      29.82R
ROTA AIRPORT   PTCLDY    79  77  94 SE7       29.83
TINIAN AP      PTCLDY    79  75  89 SE3       29.81
SAIPAN AP      PTCLDY    81  75  83 S6        29.82R

$$

PMZ161-192100-
REPUBLIC OF PALAU-

CITY           SKY/WX    TMP DP  RH WIND       PRES   REMARKS
KOROR AP       NOT AVBL
KOROR WSO      CLOUDY    79  77  94 CALM      29.74S

$$

PMZ171>174-192100-
FEDERATED STATES OF MICRONESIA-

CITY           SKY/WX    TMP DP  RH WIND       PRES   REMARKS
YAP AIRPORT    MOCLDY    79  75  89 VRB2      29.71S
CHUUK AP       CLOUDY    79  77  94 VRB5      29.81R
POHNPEI AP     NOT AVBL
POHNPEI WSO    MOCLDY    82  75  78 E7        29.98R
KOSRAE AP      NOT AVBL

$$

PMZ181-192100-
REPUBLIC OF THE MARSHALL ISLANDS-

CITY           SKY/WX    TMP DP  RH WIND       PRES   REMARKS
KWAJALEIN AP   MOSUNNY   81  75  83 E17G23    29.83R
MAJURO AP      PTSUNNY   81  77  89 NE12      29.81
MAJURO WSO     PTSUNNY   82  77  83 NE10      29.82R HX  91

$$




USA.gov is the U.S. government's official web portal to all federal, state and local government web resources and services.